Wind_Speed
28 23 21 21 20 20 21 22 21 21 22 22 21 21 18 17 17 17 17 17 17 16 16 17 17 16 17 18 18 18 18 18 19 19 20 21 21 22 21 20 20 20 20 20
31 29 25 23 22 21 21 23 23 23 24 25 25 25 21 19 18 18 19 19 19 18 18 18 18 18 19 20 20 20 19 19 20 20 21 22 22 22 22 22 21 22 21 21
31 29 28 29 25 23 23 24 24 25 25 27 27 25 24 23 22 21 21 21 20 20 20 20 20 20 21 21 21 21 21 21 20 20 21 22 22 22 23 23 23 23 23 23
31 29 31 30 28 25 25 26 27 28 27 27 28 28 28 27 25 23 22 23 22 22 22 21 22 22 23 22 22 22 22 23 23 22 22 22 23 23 24 24 24 24 24 24
30 30 30 28 27 27 27 27 29 30 29 29 29 30 29 28 27 25 24 25 24 24 24 23 23 23 24 23 22 23 23 23 23 23 23 23 24 24 24 25 25 25 25 24
32 30 29 29 29 29 29 30 31 29 29 30 30 30 30 28 27 27 26 25 25 25 26 25 25 25 25 24 24 24 25 24 25 25 25 25 25 25 26 26 26 25 25 25
32 31 30 31 30 28 30 32 30 30 30 30 30 31 32 30 29 28 26 26 26 27 27 27 27 27 26 26 25 25 26 26 26 26 26 26 27 26 27 26 26 25 25 25
34 33 32 33 32 31 32 31 31 31 31 31 30 31 32 32 30 29 28 28 28 28 28 28 29 28 28 27 26 27 27 27 27 27 27 28 28 27 27 26 26 25 25 25
34 35 35 34 33 33 34 33 31 31 31 31 31 32 32 32 31 30 30 30 29 29 29 29 29 29 29 28 29 29 29 29 29 28 29 29 28 27 27 27 27 26 26 26
35 35 35 35 34 33 32 31 32 33 32 32 32 32 32 32 32 32 31 31 31 31 31 30 30 30 31 31 30 30 30 30 30 30 30 29 29 28 27 27 27 26 27 26
34 35 35 35 35 34 33 33 33 32 32 32 33 34 34 33 32 32 33 32 33 33 33 32 32 31 31 31 31 31 32 31 31 31 30 30 29 29 29 28 28 28 28 27
35 35 35 34 34 34 34 35 35 35 33 34 35 34 33 32 32 32 32 32 33 34 34 33 33 32 32 32 32 31 31 31 31 30 30 30 30 30 30 29 29 28 28 28
33 34 36 36 36 36 35 35 35 35 34 34 34 34 33 33 32 32 33 33 33 33 34 34 33 32 32 32 32 32 32 31 31 31 30 30 30 30 30 30 29 29 29 28
33 33 34 34 35 35 35 35 34 34 34 34 34 34 33 33 33 32 32 33 33 33 34 33 33 32 32 33 32 32 32 31 31 30 30 31 30 30 30 30 29 29 28 28
32 32 31 31 32 33 33 34 33 32 32 33 33 33 33 33 33 33 33 33 32 32 32 33 33 33 32 32 31 31 31 31 31 31 32 32 32 32 31 30 29 29 28 28
32 30 29 30 32 32 32 32 32 32 32 33 33 33 33 34 33 33 32 32 32 33 32 32 32 32 31 31 31 31 31 31 32 32 32 33 32 31 31 29 29 28 28 28
30 30 29 28 29 29 30 30 31 31 31 31 32 33 33 34 33 32 32 32 32 32 32 32 33 32 32 32 31 31 31 32 32 32 32 32 32 30 30 29 28 28 28 29
29 29 29 28 29 29 29 29 30 31 32 32 31 32 32 32 32 32 31 31 31 32 32 32 32 32 32 32 31 31 31 31 32 32 32 32 32 31 30 30 30 29 29 29
28 28 28 28 29 29 30 30 30 31 32 32 31 31 30 30 30 31 30 30 30 30 30 30 31 32 32 32 32 31 31 32 32 32 32 32 32 32 31 31 30 30 30 30
28 27 27 28 28 29 28 29 30 30 30 30 30 29 29 29 29 29 29 29 29 30 29 29 29 30 30 30 30 30 31 31 31 31 32 32 32 32 32 31 30 30 30 30
26 26 26 26 27 27 27 27 28 27 27 27 28 28 28 28 27 28 27 26 26 27 27 27 27 27 28 28 28 29 29 30 29 29 30 31 31 31 31 31 30 30 30 30
22 22 22 23 24 24 24 24 23 23 24 25 25 25 25 25 25 25 24 24 24 25 25 26 26 27 27 27 27 28 28 29 29 29 30 30 31 31 31 31 30 30 30 30
19 20 20 20 20 21 22 22 22 22 22 22 23 23 23 23 23 23 23 23 23 24 25 26 27 27 27 28 28 29 29 29 29 29 30 30 30 30 30 30 29 30 30 30
19 18 18 18 18 18 19 19 20 21 21 22 22 22 23 23 23 23 23 23 23 24 25 26 26 27 27 28 28 28 28 28 29 29 29 29 29 29 29 29 29 30 30 30
17 16 16 16 16 16 16 18 19 19 20 20 21 22 23 22 22 22 23 24 24 25 25 26 26 27 27 27 28 27 27 28 28 29 29 29 29 30 30 30 30 31 31 31
15 14 14 14 14 14 15 15 16 17 17 18 19 21 22 22 22 22 23 23 23 24 25 25 25 26 27 27 28 28 28 28 28 29 29 29 30 30 30 30 31 31 32 31
14 14 14 13 13 14 15 15 16 16 17 18 19 20 21 21 21 22 22 23 23 23 24 25 26 26 27 27 27 27 28 28 29 30 30 30 30 30 30 31 31 31 31 32
Wind_Direction
220 222 228 237 241 237 236 235 241 248 256 266 272 271 263 264 268 277 283 287 290 293 296 299 303 308 312 314 315 317 319 322 322 323 323 324 324 323 321 321 320 318 316 316
226 224 228 233 238 240 237 238 242 245 250 256 261 263 264 264 267 275 281 284 286 287 290 293 296 300 305 307 308 311 313 315 315 318 320 321 321 321 321 320 319 317 315 314
230 230 234 237 234 237 241 243 245 245 249 254 257 260 263 269 271 272 276 281 284 285 286 288 292 296 299 301 305 307 308 313 312 314 317 321 322 322 322 320 319 318 315 313
233 232 235 239 239 238 243 244 245 245 249 257 262 264 266 270 269 269 274 279 281 282 282 284 287 292 295 298 301 304 308 311 311 310 312 315 317 319 319 319 319 319 318 314
232 235 239 239 239 240 243 247 249 249 250 253 258 263 265 268 269 268 271 274 277 279 280 282 285 287 291 295 297 300 303 305 308 310 311 313 314 314 316 317 317 317 317 316
233 234 237 239 239 241 243 247 248 250 252 253 255 260 263 265 268 268 269 271 273 276 279 280 282 285 287 291 294 297 300 302 304 306 309 310 312 312 313 314 314 315 316 315
234 235 239 242 239 240 241 245 250 251 251 252 254 258 263 264 264 265 267 270 272 275 278 281 283 286 287 289 291 294 297 299 301 303 306 308 310 311 312 312 313 314 314 313
236 235 238 243 243 241 242 248 251 252 253 255 257 259 262 265 266 267 270 270 271 273 276 280 283 284 286 289 290 291 293 295 297 299 302 304 305 306 308 310 311 312 312 311
238 237 239 243 245 245 245 247 249 251 255 256 257 258 260 261 263 265 268 269 270 271 273 278 282 283 284 286 288 289 290 292 294 295 298 301 303 303 305 307 310 311 311 312
237 239 241 243 245 246 250 252 252 253 254 256 257 258 259 260 261 263 266 267 269 271 273 276 279 282 284 285 286 287 288 290 291 292 294 297 299 300 302 304 307 310 312 311
238 239 241 242 243 246 250 252 253 255 256 256 257 258 258 257 260 264 266 266 268 270 273 274 277 280 283 284 285 287 288 288 288 290 291 294 296 297 298 300 302 305 309 310
239 240 241 242 242 246 250 252 253 255 256 257 257 258 259 260 261 264 266 267 268 270 272 273 275 277 279 281 283 286 287 288 288 289 292 293 294 294 295 297 299 302 304 306
241 242 243 244 245 248 251 253 255 255 256 258 258 259 261 261 263 264 265 267 269 269 270 271 272 274 275 277 279 283 284 285 286 288 291 293 293 293 294 295 297 299 300 302
240 241 244 244 245 247 250 252 254 255 257 258 259 260 261 263 264 264 265 266 268 269 270 270 271 273 274 275 277 279 281 283 285 287 291 293 294 294 294 294 296 297 298 299
243 243 244 245 247 249 249 252 255 256 258 259 261 261 262 262 263 264 265 266 266 268 269 270 270 272 273 275 278 279 279 281 283 286 289 291 292 293 293 294 296 296 296 297
242 244 245 245 248 250 250 252 254 256 258 260 261 261 261 262 263 264 265 265 266 267 268 271 272 273 274 275 277 278 280 281 282 284 287 290 292 293 293 294 295 296 297 298
246 246 248 250 250 251 252 253 255 256 258 260 260 260 261 262 263 263 264 265 266 268 270 271 272 272 274 277 277 277 279 281 283 284 287 290 292 295 297 297 296 296 297 297
249 251 252 252 251 252 253 256 257 258 260 261 262 262 262 261 261 262 262 264 266 268 269 271 271 272 274 276 278 279 280 281 283 284 286 289 292 294 296 296 296 296 295 296
250 250 251 251 251 254 257 258 259 259 259 260 259 259 260 260 261 262 263 264 266 268 270 271 272 273 274 275 277 278 280 281 282 284 286 288 290 292 293 294 295 295 295 296
249 249 250 251 250 252 254 258 258 257 257 257 256 257 260 261 263 263 263 265 268 269 269 271 274 274 274 275 277 279 281 283 285 285 286 288 289 290 291 291 294 294 294 295
250 251 251 250 250 251 253 256 256 254 253 254 255 258 260 261 262 263 264 266 268 270 271 271 274 276 275 275 277 280 281 282 285 287 288 289 290 289 290 290 290 292 293 294
249 252 253 250 246 247 249 252 254 253 254 255 256 258 259 261 263 265 265 265 269 270 269 272 275 276 276 277 277 280 282 284 285 286 287 288 288 288 289 289 290 292 294 295
247 250 251 247 246 247 247 250 252 252 253 255 257 258 259 263 266 267 267 268 271 273 274 275 276 277 277 278 278 280 283 286 287 288 288 287 286 287 288 289 291 292 293 294
246 249 249 249 249 248 250 250 251 251 251 253 253 256 259 264 267 267 270 272 274 276 277 277 277 279 280 281 281 282 283 285 287 288 289 289 290 290 291 292 293 293 294 295
247 247 248 254 257 256 255 253 251 249 250 252 253 256 260 265 268 270 272 273 274 274 275 278 279 281 281 282 283 282 282 284 286 287 287 288 289 290 291 292 294 294 295 296
244 245 247 250 252 255 256 255 252 251 252 254 256 259 264 267 269 272 274 274 274 276 279 281 281 281 282 283 283 282 283 285 285 286 287 287 288 289 290 292 294 295 295 295
243 245 248 249 249 253 255 255 255 254 253 257 261 265 268 268 268 272 276 275 276 279 280 282 284 285 285 285 285 285 286 286 287 287 287 287 287 288 290 291 293 294 294 295
Height
5883 5887 5890 5892 5894 5896 5898 5901 5903 5903 5903 5902 5900 5898 5897 5899 5900 5901 5901 5901 5900 5900 5899 5897 5896 5895 5893 5892 5890 5889 5886 5884 5882 5880 5877 5875 5872 5870 5867 5864 5862 5860 5857 5855
5876 5881 5883 5885 5888 5891 5893 5895 5897 5897 5898 5897 5896 5893 5892 5895 5896 5897 5897 5897 5897 5896 5895 5894 5893 5892 5890 5889 5887 5885 5883 5881 5879 5876 5874 5872 5869 5866 5864 5861 5858 5856 5854 5851
5870 5874 5876 5879 5882 5884 5886 5889 5890 5891 5892 5890 5889 5888 5889 5891 5892 5892 5893 5893 5892 5892 5891 5890 5889 5888 5887 5885 5884 5882 5879 5877 5874 5872 5870 5868 5865 5863 5860 5857 5854 5852 5849 5846
5863 5867 5869 5875 5876 5878 5881 5882 5883 5883 5885 5885 5884 5884 5885 5886 5887 5887 5888 5888 5888 5887 5886 5886 5885 5884 5883 5881 5880 5878 5876 5874 5871 5869 5867 5864 5861 5859 5856 5853 5850 5848 5845 5842
5856 5859 5862 5867 5869 5871 5873 5874 5875 5876 5879 5880 5880 5880 5880 5880 5880 5880 5882 5883 5883 5882 5882 5881 5880 5879 5878 5877 5875 5874 5872 5870 5867 5865 5862 5860 5857 5855 5852 5849 5846 5843 5840 5836
5848 5852 5855 5859 5861 5863 5867 5866 5867 5869 5871 5872 5873 5874 5873 5874 5875 5876 5876 5876 5877 5877 5876 5876 5875 5874 5873 5872 5870 5869 5867 5865 5863 5860 5857 5855 5852 5850 5847 5844 5840 5837 5834 5831
5840 5844 5847 5850 5852 5855 5858 5858 5860 5861 5863 5864 5866 5867 5867 5867 5867 5867 5868 5869 5870 5871 5870 5870 5869 5868 5866 5866 5865 5863 5861 5859 5857 5855 5852 5850 5847 5844 5841 5838 5835 5832 5829 5826
5832 5836 5841 5841 5844 5846 5848 5849 5851 5853 5854 5857 5858 5859 5859 5860 5861 5860 5861 5862 5863 5864 5864 5863 5862 5861 5860 5859 5858 5857 5855 5853 5851 5849 5847 5844 5842 5839 5836 5833 5830 5827 5824 5821
5824 5828 5830 5833 5836 5837 5839 5841 5843 5845 5847 5849 5850 5851 5851 5852 5854 5854 5855 5855 5856 5856 5856 5856 5855 5854 5853 5852 5851 5849 5848 5846 5844 5842 5840 5838 5835 5832 5830 5828 5825 5822 5819 5816
5815 5818 5822 5825 5827 5829 5831 5833 5835 5837 5839 5841 5842 5843 5843 5845 5846 5847 5847 5848 5848 5848 5848 5848 5848 5847 5846 5845 5843 5842 5841 5839 5837 5835 5833 5831 5829 5827 5824 5822 5819 5816 5813 5810
5806 5810 5813 5816 5819 5821 5824 5826 5827 5829 5831 5832 5833 5834 5835 5836 5837 5838 5839 5840 5840 5840 5840 5840 5839 5839 5838 5837 5835 5834 5833 5831 5829 5828 5826 5824 5822 5820 5818 5815 5813 5810 5807 5805
5797 5801 5804 5807 5809 5812 5814 5816 5818 5821 5822 5823 5823 5825 5826 5827 5829 5830 5831 5831 5832 5832 5832 5831 5831 5830 5829 5828 5827 5826 5824 5823 5822 5820 5819 5817 5815 5812 5810 5808 5806 5803 5801 5798
5787 5791 5794 5798 5801 5803 5805 5807 5809 5811 5813 5813 5814 5816 5817 5818 5820 5821 5822 5822 5823 5823 5823 5822 5822 5821 5820 5820 5818 5818 5816 5815 5814 5812 5811 5809 5807 5805 5803 5801 5798 5796 5794 5791
5778 5781 5784 5787 5790 5794 5796 5798 5799 5800 5803 5803 5803 5806 5807 5809 5811 5812 5812 5813 5813 5813 5813 5813 5813 5813 5812 5811 5810 5809 5808 5807 5806 5804 5803 5801 5799 5797 5795 5793 5791 5789 5786 5784
5770 5773 5776 5778 5781 5783 5785 5788 5790 5792 5794 5794 5794 5796 5798 5800 5801 5802 5803 5803 5803 5804 5804 5804 5804 5804 5803 5802 5801 5801 5800 5799 5798 5797 5795 5793 5791 5789 5787 5785 5783 5780 5779 5776
5762 5764 5767 5770 5772 5775 5777 5779 5781 5782 5784 5785 5786 5787 5788 5790 5791 5793 5794 5794 5794 5795 5795 5795 5795 5795 5794 5793 5793 5793 5792 5791 5790 5789 5787 5785 5782 5780 5779 5777 5774 5772 5771 5769
5756 5758 5760 5761 5764 5766 5768 5770 5771 5773 5774 5775 5776 5777 5779 5780 5781 5782 5784 5785 5785 5786 5786 5786 5786 5785 5785 5785 5784 5784 5783 5782 5781 5780 5779 5777 5775 5773 5771 5769 5767 5765 5763 5761
5748 5751 5752 5754 5756 5758 5759 5760 5761 5763 5764 5766 5767 5768 5769 5770 5771 5773 5774 5775 5776 5777 5777 5777 5777 5776 5776 5776 5775 5774 5774 5773 5772 5771 5770 5769 5767 5765 5763 5762 5760 5758 5755 5753
5741 5743 5744 5746 5747 5748 5749 5750 5752 5753 5755 5756 5757 5758 5760 5761 5762 5764 5765 5766 5767 5768 5768 5768 5768 5768 5767 5767 5766 5765 5765 5764 5763 5762 5761 5760 5758 5756 5755 5753 5751 5749 5747 5744
5733 5734 5736 5737 5738 5739 5741 5742 5743 5744 5745 5746 5748 5749 5751 5753 5754 5755 5756 5757 5759 5759 5760 5759 5759 5759 5758 5758 5757 5757 5756 5755 5754 5753 5752 5751 5749 5748 5746 5745 5743 5741 5739 5736
5724 5726 5727 5729 5730 5732 5734 5735 5735 5735 5737 5739 5740 5742 5744 5745 5746 5747 5748 5749 5750 5751 5751 5751 5751 5751 5750 5750 5749 5749 5748 5747 5745 5744 5743 5742 5740 5739 5738 5736 5734 5732 5730 5728
5717 5719 5720 5721 5723 5725 5727 5728 5728 5729 5730 5732 5734 5735 5737 5738 5739 5739 5740 5741 5743 5743 5744 5744 5744 5743 5742 5742 5741 5741 5740 5738 5737 5736 5734 5733 5732 5730 5729 5727 5725 5723 5721 5719
5713 5714 5715 5717 5718 5719 5721 5722 5723 5724 5725 5727 5728 5730 5731 5732 5733 5733 5734 5735 5736 5736 5736 5736 5736 5735 5734 5734 5733 5732 5731 5730 5729 5727 5726 5724 5723 5722 5720 5718 5716 5715 5713 5710
5709 5710 5711 5712 5714 5714 5715 5717 5718 5719 5720 5722 5723 5724 5725 5726 5727 5728 5728 5729 5729 5729 5729 5729 5728 5727 5726 5725 5724 5723 5722 5721 5720 5719 5718 5716 5714 5713 5711 5709 5708 5706 5704 5701
5705 5706 5707 5708 5709 5711 5712 5712 5713 5715 5716 5717 5718 5719 5720 5720 5721 5722 5722 5722 5722 5722 5721 5721 5720 5719 5718 5717 5716 5715 5714 5713 5712 5711 5709 5708 5706 5704 5702 5701 5699 5697 5695 5693
5703 5703 5704 5705 5706 5707 5708 5709 5709 5711 5712 5713 5713 5714 5714 5715 5715 5715 5715 5715 5715 5714 5713 5712 5712 5711 5710 5709 5708 5707 5706 5704 5703 5702 5701 5699 5697 5695 5693 5692 5690 5688 5685 5683
5700 5701 5702 5703 5703 5704 5705 5706 5706 5707 5708 5709 5709 5709 5709 5709 5709 5709 5709 5708 5708 5707 5706 5705 5704 5703 5702 5701 5700 5698 5697 5696 5694 5693 5691 5690 5688 5687 5685 5682 5680 5678 5676 5674